User: anonymous   Login
Location: Unspecified
(0.0000°N, 0.0000°E)
Time: 10:58:12
(UTC+00:00)
Language:

Cubesat XI-IV - Orbit

View from above orbital plane
View from above orbital plane
View from above satellite
View from above satellite

Ground track
Ground track

The orbit data is extracted from the following two-line orbital elements,

1 27848U 03031J   19081.95828658 +.00000021 +00000-0 +29620-4 0  9992
2 27848 098.6948 091.9528 0008658 299.4758 060.5555 14.21762713815644
Epoch (UTC): 22 March 2019 22:59:55
Eccentricity: 0.0008658
inclination: 98.6948°
perigee height: 813 km
apogee height: 825 km
right ascension of ascending node: 91.9528°
argument of perigee: 299.4758°
revolutions per day: 14.21762713
mean anomaly at epoch: 60.5555°
orbit number at epoch: 81564

The dashed part of the orbit path shows where the satellite is in the earth's shadow,  

DLR